CES5402 OMDB-ZGDY

Flight info

Callsign CES5402
Flight time N/A
Altitude 35000
Route IVURO M677 KUSEN A791 KC R462 RAMSA Z15 JDP W58 JJP J20 OMKOP/N0460F370 J20 LKN G598 SMR G336 KTM B345 NONIM/K0848S1130 B345 OLGUT Y3 ENPAT W260 BIGOR/K0839S1190 W9 KDJ V69 WFX B213 VELPU DCT ENH
Aircraft A320/M-SDE2E3FGILRWXY/LB2

Departure

Time 2026-05-06 01:36
Airport Dubai International Airport (OMDB)

Arrival

Time N/A
Airport Zhangjiajie Hehua International Airport (ZGDY)
Time Latitude Longitude Altitude Speed Heading
2026-05-06 01:12 25.25613 55.34760 21 ft 0 kts 301°
2026-05-06 01:23 25.25609 55.34767 21 ft 4 kts 302°
2026-05-06 01:23 25.25595 55.34792 21 ft 4 kts 302°
2026-05-06 01:24 25.25580 55.34817 23 ft 4 kts 307°
2026-05-06 01:24 25.25562 55.34839 25 ft 4 kts 328°
2026-05-06 01:24 25.25539 55.34846 25 ft 3 kts 26°
2026-05-06 01:24 25.25536 55.34845 25 ft 0 kts 31°
2026-05-06 01:27 25.25547 55.34852 23 ft 4 kts 31°
2026-05-06 01:27 25.25581 55.34875 21 ft 8 kts 32°
2026-05-06 01:27 25.25638 55.34913 21 ft 11 kts 31°
2026-05-06 01:27 25.25708 55.34960 21 ft 12 kts 31°
2026-05-06 01:28 25.25778 55.35008 21 ft 11 kts 35°
2026-05-06 01:28 25.25780 55.35084 23 ft 12 kts 118°
2026-05-06 01:28 25.25732 55.35172 21 ft 15 kts 122°
2026-05-06 01:28 25.25675 55.35273 21 ft 16 kts 121°
2026-05-06 01:29 25.25611 55.35388 21 ft 18 kts 122°
2026-05-06 01:29 25.25542 55.35511 21 ft 20 kts 122°
2026-05-06 01:29 25.25468 55.35642 23 ft 21 kts 122°
2026-05-06 01:29 25.25391 55.35780 21 ft 22 kts 121°
2026-05-06 01:30 25.25310 55.35924 21 ft 23 kts 122°
2026-05-06 01:30 25.25226 55.36074 21 ft 23 kts 121°
2026-05-06 01:30 25.25146 55.36216 22 ft 19 kts 122°
2026-05-06 01:30 25.25073 55.36346 23 ft 20 kts 122°
2026-05-06 01:31 25.24995 55.36482 22 ft 21 kts 122°
2026-05-06 01:31 25.24924 55.36610 22 ft 17 kts 122°
2026-05-06 01:31 25.24880 55.36709 22 ft 14 kts 109°
2026-05-06 01:31 25.24858 55.36817 23 ft 14 kts 104°
2026-05-06 01:32 25.24818 55.36919 25 ft 15 kts 122°
2026-05-06 01:32 25.24759 55.37022 25 ft 17 kts 122°
2026-05-06 01:32 25.24696 55.37135 23 ft 18 kts 122°
2026-05-06 01:32 25.24628 55.37255 23 ft 19 kts 122°
2026-05-06 01:33 25.24556 55.37386 25 ft 20 kts 121°
2026-05-06 01:33 25.24478 55.37522 23 ft 22 kts 121°
2026-05-06 01:33 25.24402 55.37659 23 ft 17 kts 122°
2026-05-06 01:33 25.24350 55.37749 23 ft 13 kts 122°
2026-05-06 01:34 25.24348 55.37828 24 ft 11 kts 39°
2026-05-06 01:34 25.24409 55.37875 28 ft 10 kts 34°
2026-05-06 01:34 25.24466 55.37919 30 ft 12 kts 34°
2026-05-06 01:34 25.24555 55.37986 26 ft 19 kts 35°
2026-05-06 01:35 25.24659 55.38060 26 ft 15 kts 32°
2026-05-06 01:35 25.24737 55.38109 30 ft 11 kts 17°
2026-05-06 01:35 25.24791 55.38057 30 ft 13 kts 302°
2026-05-06 01:35 25.24903 55.37854 30 ft 64 kts 301°
2026-05-06 01:36 25.25264 55.37202 31 ft 132 kts 301°
2026-05-06 01:36 25.25840 55.36165 32 ft 183 kts 301°
2026-05-06 01:36 25.26525 55.34907 606 ft 191 kts 302°
2026-05-06 01:36 25.27220 55.33657 1390 ft 190 kts 302°
2026-05-06 01:37 25.27911 55.32416 2194 ft 189 kts 303°
2026-05-06 01:37 25.28603 55.31179 2980 ft 189 kts 303°
2026-05-06 01:37 25.29443 55.30101 3525 ft 185 kts 326°
2026-05-06 01:37 25.30651 55.29523 3682 ft 197 kts 353°
2026-05-06 01:38 25.32046 55.29511 3939 ft 204 kts
2026-05-06 01:38 25.33466 55.29558 4328 ft 206 kts
2026-05-06 01:38 25.34904 55.29598 4734 ft 206 kts
2026-05-06 01:38 25.36381 55.29634 4932 ft 220 kts
2026-05-06 01:39 25.37975 55.29687 5082 ft 237 kts
2026-05-06 01:39 25.39570 55.30183 5565 ft 241 kts 27°
2026-05-06 01:39 25.40966 55.31293 5867 ft 258 kts 47°
2026-05-06 01:39 25.42117 55.32857 6336 ft 266 kts 51°
2026-05-06 01:40 25.43283 55.34463 6906 ft 270 kts 51°
2026-05-06 01:40 25.44470 55.36084 7523 ft 273 kts 51°
2026-05-06 01:40 25.45673 55.37723 8109 ft 276 kts 51°
2026-05-06 01:40 25.46889 55.39380 8713 ft 279 kts 51°
2026-05-06 01:41 25.48116 55.41056 9324 ft 282 kts 51°
2026-05-06 01:41 25.49344 55.42758 9911 ft 284 kts 52°
2026-05-06 01:41 25.50552 55.44532 10255 ft 297 kts 58°
2026-05-06 01:41 25.51465 55.46621 10373 ft 316 kts 72°
2026-05-06 01:42 25.51927 55.49071 10491 ft 334 kts 86°
2026-05-06 01:42 25.51800 55.51878 10625 ft 352 kts 101°
2026-05-06 01:42 25.51016 55.54496 10768 ft 366 kts 117°
2026-05-06 01:42 25.49689 55.56934 11126 ft 372 kts 122°
2026-05-06 01:43 25.48301 55.59364 11587 ft 375 kts 122°
2026-05-06 01:43 25.46901 55.61819 12064 ft 378 kts 122°
2026-05-06 01:43 25.45493 55.64288 12556 ft 381 kts 122°
2026-05-06 01:43 25.44092 55.66745 13023 ft 384 kts 122°
2026-05-06 01:44 25.42824 55.69354 13486 ft 387 kts 112°
2026-05-06 01:44 25.42014 55.72196 13897 ft 390 kts 103°
2026-05-06 01:44 25.41405 55.75136 14317 ft 393 kts 103°
2026-05-06 01:44 25.40786 55.78089 14742 ft 395 kts 103°
2026-05-06 01:45 25.40158 55.81057 15164 ft 398 kts 103°
2026-05-06 01:45 25.39519 55.84047 15585 ft 401 kts 103°
2026-05-06 01:45 25.38872 55.87056 16006 ft 404 kts 103°
2026-05-06 01:45 25.38219 55.90085 16424 ft 406 kts 103°
2026-05-06 01:46 25.37562 55.93136 16837 ft 409 kts 103°
2026-05-06 01:46 25.36903 55.96204 17250 ft 412 kts 103°
2026-05-06 01:46 25.36240 55.99301 17664 ft 415 kts 103°
2026-05-06 01:46 25.35573 56.02414 18068 ft 418 kts 102°
2026-05-06 01:47 25.34901 56.05552 18434 ft 421 kts 103°
2026-05-06 01:47 25.34223 56.08705 18794 ft 423 kts 103°
2026-05-06 01:47 25.33537 56.11882 19149 ft 426 kts 103°
2026-05-06 01:47 25.32872 56.15087 19496 ft 429 kts 99°
2026-05-06 01:48 25.32529 56.18365 19838 ft 431 kts 94°
2026-05-06 01:48 25.32262 56.21677 20190 ft 434 kts 94°
2026-05-06 01:48 25.31990 56.25015 20523 ft 437 kts 94°
2026-05-06 01:48 25.31718 56.28323 20851 ft 439 kts 95°
2026-05-06 01:49 25.31437 56.31696 21177 ft 442 kts 95°
2026-05-06 01:49 25.31151 56.35088 21507 ft 445 kts 95°
2026-05-06 01:49 25.30861 56.38503 21826 ft 447 kts 95°
2026-05-06 01:49 25.30613 56.41938 22139 ft 450 kts 93°
2026-05-06 01:50 25.30463 56.45399 22446 ft 452 kts 91°
2026-05-06 01:50 25.30382 56.48883 22743 ft 455 kts 90°
2026-05-06 01:50 25.30331 56.52385 23040 ft 457 kts 90°
2026-05-06 01:50 25.30275 56.55905 23320 ft 460 kts 90°
2026-05-06 01:51 25.30200 56.59444 23564 ft 462 kts 91°
2026-05-06 01:51 25.30105 56.62999 23796 ft 464 kts 91°
2026-05-06 01:51 25.29996 56.66581 24031 ft 467 kts 91°
2026-05-06 01:51 25.29880 56.70173 24270 ft 469 kts 91°
2026-05-06 01:52 25.29763 56.73779 24507 ft 471 kts 91°
2026-05-06 01:52 25.29648 56.77403 24740 ft 473 kts 91°
2026-05-06 01:52 25.29533 56.81050 24969 ft 476 kts 91°
2026-05-06 01:52 25.29421 56.84707 25197 ft 478 kts 91°
2026-05-06 01:53 25.29309 56.88389 25427 ft 480 kts 91°
2026-05-06 01:53 25.29200 56.92075 25725 ft 480 kts 91°
2026-05-06 01:53 25.29093 56.95767 26071 ft 480 kts 91°
2026-05-06 01:53 25.28986 56.99456 26385 ft 480 kts 91°
2026-05-06 01:54 25.28876 57.03142 26704 ft 481 kts 91°
2026-05-06 01:54 25.28764 57.06833 27025 ft 481 kts 91°
2026-05-06 01:54 25.28648 57.10533 27354 ft 481 kts 91°
2026-05-06 01:54 25.28532 57.14223 27680 ft 482 kts 91°
2026-05-06 01:55 25.28422 57.17923 28016 ft 482 kts 91°
2026-05-06 01:55 25.28323 57.21628 28349 ft 482 kts 91°
2026-05-06 01:55 25.28228 57.25332 28692 ft 482 kts 91°
2026-05-06 01:55 25.28133 57.29031 29033 ft 483 kts 91°
2026-05-06 01:56 25.28034 57.32737 29380 ft 483 kts 91°
2026-05-06 01:56 25.27929 57.36450 29731 ft 483 kts 91°
2026-05-06 01:56 25.27821 57.40164 30047 ft 483 kts 91°
2026-05-06 01:56 25.27711 57.43875 30338 ft 484 kts 91°
2026-05-06 01:57 25.27599 57.47591 30623 ft 484 kts 91°
2026-05-06 01:57 25.27487 57.51307 30911 ft 484 kts 91°
2026-05-06 01:57 25.27379 57.55022 31206 ft 484 kts 91°
2026-05-06 01:57 25.27271 57.58743 31502 ft 485 kts 92°
2026-05-06 01:58 25.27198 57.61207 31698 ft 485 kts 92°
2026-05-06 01:58 25.27048 57.66185 32103 ft 485 kts 92°
2026-05-06 01:58 25.26972 57.68655 32299 ft 485 kts 92°
2026-05-06 01:58 25.26858 57.72375 32596 ft 485 kts 92°
2026-05-06 01:59 25.26741 57.76102 32896 ft 485 kts 92°
2026-05-06 01:59 25.26621 57.79823 33180 ft 485 kts 92°
2026-05-06 01:59 25.26450 57.84808 33548 ft 485 kts 93°
2026-05-06 01:59 25.26361 57.87274 33726 ft 485 kts 93°
2026-05-06 02:00 25.26178 57.92251 34047 ft 485 kts 93°
2026-05-06 02:00 25.26086 57.94717 34205 ft 485 kts 93°
2026-05-06 02:00 25.25946 57.98437 34449 ft 484 kts 93°
2026-05-06 02:00 25.25809 58.02145 34692 ft 483 kts 93°
2026-05-06 02:01 25.25674 58.05858 34798 ft 484 kts 93°
2026-05-06 02:01 25.25539 58.09587 34833 ft 489 kts 93°
2026-05-06 02:01 25.25257 58.17174 34832 ft 500 kts 93°
2026-05-06 02:02 25.24957 58.24883 34827 ft 503 kts 93°
2026-05-06 02:02 25.24660 58.32606 34828 ft 503 kts 93°
2026-05-06 02:03 25.24365 58.40325 34828 ft 503 kts 93°
2026-05-06 02:03 25.24063 58.48052 34832 ft 503 kts 93°
2026-05-06 02:04 25.23748 58.55779 34839 ft 504 kts 93°
2026-05-06 02:04 25.23433 58.63507 34842 ft 504 kts 93°
2026-05-06 02:05 25.23122 58.71233 34847 ft 504 kts 93°
2026-05-06 02:05 25.22801 58.78961 34848 ft 504 kts 93°
2026-05-06 02:06 25.22476 58.86687 34851 ft 504 kts 93°
2026-05-06 02:06 25.22141 58.94407 34852 ft 504 kts 93°
2026-05-06 02:07 25.21806 59.02133 34852 ft 503 kts 93°
2026-05-06 02:07 25.21472 59.09852 34854 ft 503 kts 93°
2026-05-06 02:08 25.21130 59.17573 34856 ft 503 kts 93°
2026-05-06 02:08 25.20786 59.25296 34857 ft 503 kts 93°
2026-05-06 02:09 25.20431 59.33013 34857 ft 503 kts 93°
2026-05-06 02:09 25.20076 59.40736 34859 ft 503 kts 93°
2026-05-06 02:10 25.19707 59.48443 34858 ft 504 kts 93°
2026-05-06 02:10 25.19327 59.56176 34861 ft 504 kts 93°
2026-05-06 02:11 25.18946 59.63901 34859 ft 504 kts 93°
2026-05-06 02:11 25.18561 59.71628 34862 ft 504 kts 93°
2026-05-06 02:12 25.18173 59.79305 34862 ft 504 kts 93°
2026-05-06 02:12 25.17778 59.87040 34864 ft 505 kts 93°